User: anonymous   Login
Location: Hiram
(41.3130°N, 81.1440°W)
Time: 07:41:50
(UTC-05:00)
Language:

Iridium 62 - Orbit

View from above orbital plane
View from above orbital plane
View from above satellite
View from above satellite

Ground track
Ground track

The orbit data is extracted from the following two-line orbital elements,

1 25285U 98021A   15060.52634586  .00000275  00000-0  91261-4 0  9990
2 25285 086.3970 214.4353 0001882 097.2228 262.9182 14.34213225884814
Epoch (UTC): 01 March 2015 12:37:56
Eccentricity: 0.0001882
inclination: 86.3970°
perigee height: 776 km
apogee height: 779 km
right ascension of ascending node: 214.4353°
argument of perigee: 97.2228°
revolutions per day: 14.34213225
mean anomaly at epoch: 262.9182°
orbit number at epoch: 88481

The dashed part of the orbit path shows where the satellite is in the earth's shadow,  

DLR